sat.trackr.live / text

‹ back to catalog

STARLINK-35119

NORAD 65508 · 2025-198S

PAYLOAD ACTIVE UNKNOWN

§ Identity

Operator
Country
US
Launch date
2025-09-05
Launch site
AFETR
Launch vehicle
Mass (kg)
RCS (m²)

Purposes: comms

External: N2YO · Heavens-Above · Gunter

§ Orbital elements

Epoch: 2026-05-25T03:29:01.775616Z

Period
93.85 min
Inclination
53.1595°
Eccentricity
0.0001040
Mean motion
15.34417069 rev/d
Perigee alt
461.9 km
Apogee alt
463.4 km
Semi-major
6,840.8 km
B*
8.4623e-4
RAAN
275.3128°
Arg perigee
88.5303°
Mean anomaly
271.5818°
Rev number
4,033

§ Raw data

STARLINK-351191 65508U 25198S   26145.14515944  .00028339  00000+0  84623-3 0  99902 65508  53.1595 275.3128 0001040  88.5303 271.5818 15.34417069 40336

JSON: /api/v1/satellites/65508 · /tle

For live sub-satellite position, see the globe view (requires WebGL).

§ Visibility from observer

Set your observer location to see the next 7 days of passes ≥ 10°. The values pass through the URL so the page stays shareable.

No JS? Fill the form by hand. The geolocation button needs JavaScript.